Погода в Ивановке

Россия / Амурская область     50°21′40″N   127°59′55″E
темп.,
°C
ветер,
м/с
пор.,
м/с
влажн.,
%
обл.,
%
осадки,
мм/ч
давл.,
гПа
погр.,
м
16 мая, вс
вс1600:00+9з36725 0.1 100184
03:00+8з413670 0.1 1001245
06:00+8з411690 0.0 1002261
09:00+14зсз58440 0.0 1002944
12:00+19зсз68293 0.0 10002555
15:00+21зсз58235 0.0 9993123
18:00+21з23343 0.0 998162
21:00+14ююз45432 0.0 99861
17 мая, пн
пн1700:00+12юз34500 0.0 99842
03:00+10зюз33500 0.0 99833
06:00+11з210581 0.0 998228
09:00+17сз57465 0.0 999898
12:00+21зсз5833100 0.0 9992765
15:00+21сз78235 0.0 9992625
18:00+19ссз46275 0.0 999608
21:00+12всв4114271 0.0 1000230
18 мая, вт
вт1800:00+10вюв3114983 0.0 999248
03:00+10ссв7125077 0.0 998348
06:00+8св6126622 0.0 996557
09:00+11с4456100 0.0 998723
12:00+14сз5651100 0.0 9991181
15:00+15ссз5747100 0.0 9991619
18:00+15ссз484587 0.0 10011880
21:00+10всв476352 0.0 1003152
19 мая, ср
ср1900:00+8вюв12703 0.0 100511
03:00+8ссв12695 0.0 100612
06:00+8в12715 0.0 100772
09:00+13ююв24495 0.0 1007851
12:00+18юз34377 0.0 10062380
15:00+20ю492946 0.0 10042879
18:00+20ююз25265 0.0 10032705
21:00+15ю41044100 0.0 1004164
20 мая, чт
чт2000:00+13ююв61444100 0.0 1003271
03:00+13ю61546100 0.0 1001335
06:00+12ю61148100 0.1 1001281
09:00+14ю5105582 0.1 1000395
12:00+22юз363798 0.0 10002011
15:00+25зюз473082 0.0 9992773
18:00+21ссв6747100 0.0 1000462
21:00+17ссв4105978 0.0 1003275